Location: Unspecified
(0.0000°N, 0.0000°E)
Time: 13:05:07
(UTC+02:00)

Iridium 12 - Visible Passes

Search period start: 28 August 2014 00:00
Search period end: 07 September 2014 00:00
Orbit: 776 x 779 km, 86.4° (Epoch: 27 August)

Date Brightness Start Highest point End Pass type
(mag) Time Alt. Az. Time Alt. Az. Time Alt. Az.
29 Aug 5.8 07:08:42 10° S 07:13:54 73° E 07:19:04 10° N visible
30 Aug 7.4 06:35:50 10° SSE 06:40:26 32° E 06:45:01 10° NNE visible
31 Aug 8.5 06:04:13 10° ESE 06:06:59 15° E 06:09:44 10° ENE visible
31 Aug 9.2 20:20:01 10° W 20:20:49 10° W 20:21:38 10° W visible
01 Sep 5.5 07:08:46 10° S 07:13:57 69° W 07:19:07 10° N visible
02 Sep 6.3 06:35:26 10° SSE 06:40:30 52° E 06:45:32 10° NNE visible
03 Sep 7.8 06:02:56 10° SE 06:07:03 24° E 06:11:07 10° NE visible
04 Sep 5.9 07:09:07 10° SSW 07:14:01 42° W 07:18:53 10° NNW visible
05 Sep 5.5 06:35:20 10° S 06:40:34 86° E 06:45:45 10° N visible
06 Sep 6.9 06:02:18 10° SSE 06:07:06 38° E 06:11:52 10° NNE visible
